Location: Domont
(49.0278°N, 2.3264°E)
Time: 13:58:49
(UTC+00:00)

Envisat - Pass Details

Date: 29 January 2022
Orbit: 764 x 765 km, 98.2° (Epoch: 17 May)

Event Time Altitude Azimuth Distance (km) Brightness Sun altitude
Rises 05:44:53 0° 7° (N) 3,244 6.2 -16.5°
Reaches altitude 10° 05:47:20 10° 360° (N) 2,313 5.4 -16.1°
Maximum altitude 05:51:57 36° 295° (WNW) 1,197 3.5 -15.3°
Drops below altitude 10° 05:56:34 10° 229° (SW) 2,300 5.1 -14.6°
Sets 05:59:00 0° 221° (SW) 3,222 5.9 -14.2°
